[[{"header":{"parameterUnit":"m.s-1","parameterCategory":1,"la1":30.2991,"la2":30.254,"lo1":-89.0895,"lo2":-89.0444,"dy":0.0017,"dx":0.0017,"nx":28,"ny":28,"refTime":"2025-07-15T09:00:00:Z","depth":0,"parameterNumber":2,"parameterNumberName":"U-component_of_WINDS"},"data":[0,0,0,0,0,0,0,0,0,0,0,0,0,0,0,0,0,0,0,0,0,0,0,0,0,0,0,0,0,0,0,0,0,0,0,0,0,0,0,0,0,0,0,0,0,0,0,0,0,0,0,0,0,0,0,0,0,0,1.8544,1.8545,0,1.8676,1.8678,1.8679,1.8699,1.8698,1.8697,1.8696,1.8836,1.884,1.8845,0,0,0,0,0,0,0,0,0,0,0,0,0,1.8311,1.8315,1.8543,1.8545,1.8547,1.8676,1.8678,1.868,1.87,1.8698,1.8697,1.8695,1.8834,1.884,1.8846,0,0,0,0,0,0,0,0,0,0,0,0,0,1.8424,1.8316,1.8543,1.8572,1.8576,1.8676,1.8678,1.868,1.87,1.8698,1.8696,1.8695,1.8832,1.8839,1.8846,1.8928,0,0,1.8869,1.8872,0,0,0,0,0,0,0,0,1.8418,1.8433,1.8566,1.857,1.8575,1.8669,1.8647,1.8763,1.87,1.8653,1.8696,1.8694,1.8782,1.8793,1.8822,1.8934,1.894,1.8869,1.8874,1.8877,1.8879,0,0,0,0,0,0,0,1.841,1.8427,1.8596,1.8568,1.8573,1.858,1.8594,1.8669,1.8726,1.8657,1.8659,1.8674,1.8784,1.8815,1.8826,1.8942,1.8869,1.8876,1.888,1.8883,1.9127,1.9129,0,0,0,0,0,0,1.8396,1.8421,1.8592,1.86,1.849,1.8585,1.8601,1.8641,1.8725,1.8736,1.8675,1.8674,1.8804,1.8817,1.8831,1.8931,1.8877,1.8884,1.8888,1.9125,1.9128,1.913,0,0,0,0,0,0,1.8391,1.8411,1.8587,1.8511,1.8534,1.8591,1.8636,1.8645,1.8676,1.8739,1.875,1.8696,1.8803,1.8821,1.8903,1.8936,1.8887,1.8894,1.9123,1.9126,1.9129,1.9131,0,0,0,0,0,0,1.8384,1.8409,1.844,1.8511,1.8538,1.8655,1.8638,1.8648,1.8688,1.8688,1.8762,1.8773,1.8803,1.8892,1.891,1.8945,1.8899,1.912,1.9124,1.9128,1.9128,1.9134,1.9139,0,0,0,0,0,1.8376,1.8436,1.8441,1.8462,1.8577,1.8657,1.8672,1.8705,1.869,1.8722,1.8763,1.877,1.893,1.89,1.8921,1.8958,1.9118,1.9123,1.9128,1.9126,1.9133,1.9139,0,0,0,0,0,0,1.8368,1.8446,1.8453,1.8537,1.859,1.866,1.8701,1.8711,1.877,1.8768,1.8807,1.8824,1.8904,1.894,1.8906,1.9041,1.9023,1.9032,1.9014,1.9022,1.9027,1.9016,1.8905,0,0,0,0,0,1.8376,1.8434,1.8499,1.8568,1.8594,1.8643,1.8679,1.87,1.8757,1.8779,1.8827,1.8883,1.8945,1.8986,1.9047,1.9134,1.9151,1.917,1.9176,1.918,1.9186,1.9235,1.9244,1.9146,1.9146,1.9146,0,0,1.8393,1.8443,1.8477,1.8568,1.8611,1.867,1.8662,1.8725,1.877,1.879,1.8869,1.8906,1.8972,1.9056,1.9096,1.9089,1.9218,1.9186,1.9188,1.9193,1.9241,1.925,1.9258,1.9149,1.9149,1.9148,0,0,1.8455,1.8499,1.856,1.8603,1.8669,1.8701,1.8716,1.8785,1.8809,1.889,1.8906,1.8961,1.9068,1.9113,1.9151,1.923,1.9239,1.9249,1.9276,1.9323,1.933,1.9337,1.9365,1.9374,1.9257,1.9257,1.9257,0,1.8468,1.8557,1.859,1.8653,1.8692,1.8712,1.8775,1.8816,1.8899,1.8926,1.8916,1.9051,1.9096,1.9192,1.9211,1.9241,1.9259,1.924,1.9326,1.9334,1.9341,1.9367,1.9378,1.9257,1.9257,1.9257,1.9257,0,1.857,1.8632,1.8674,1.8751,1.8796,1.8858,1.8902,1.8943,1.896,1.8994,1.9076,1.9132,1.9204,1.9229,1.9247,1.9327,1.932,1.9318,1.93,1.935,1.9376,1.9386,1.9258,1.9258,1.9258,1.9258,0,0,1.8629,1.8724,1.8739,1.8774,1.8848,1.8897,1.8961,1.903,1.9065,1.9122,1.9176,1.9267,1.9265,1.9308,1.9331,1.9373,1.9431,1.9366,1.9368,1.9374,1.9522,1.9521,1.9533,1.9438,1.944,1.9442,1.9516,0,1.8698,1.881,1.8842,1.8937,1.8995,1.9015,1.9071,1.9123,1.9156,1.9211,1.9249,1.9312,1.9306,1.9331,1.9373,1.9414,1.946,1.941,1.9489,1.9491,1.947,1.9546,1.9546,1.9613,1.9526,1.9528,1.9529,0,1.8792,1.8849,1.895,1.9016,1.9041,1.9091,1.9157,1.9209,1.9269,1.9291,1.9338,1.9358,1.9426,1.9406,1.9501,1.9466,1.9501,1.9526,1.953,1.9537,1.9512,1.9554,1.9636,1.9645,1.9545,1.9544,1.9543,0,1.8823,1.8926,1.8999,1.9028,1.9108,1.9142,1.9177,1.9235,1.9275,1.9334,1.936,1.9427,1.9463,1.9515,1.9553,1.9534,1.9644,1.9627,1.9664,1.9663,1.9685,1.9683,1.9772,1.971,1.971,1.971,1.971,0,1.8896,1.8956,1.9013,1.9058,1.9127,1.9164,1.9231,1.9268,1.9319,1.9372,1.9395,1.9444,1.9492,1.9549,1.9579,1.9653,1.967,1.9689,1.9696,1.9686,1.9683,1.9708,1.9704,1.9713,1.9712,1.9712,1.9711,0,1.8941,1.8981,1.9062,1.9131,1.915,1.9197,1.9256,1.9301,1.9336,1.9403,1.9421,1.9476,1.9543,1.9586,1.9673,1.9693,1.9774,1.978,1.9752,1.9756,1.979,1.9785,1.9896,1.9912,1.9841,1.9842,1.9843,0,1.8983,1.903,1.9103,1.9139,1.9174,1.9233,1.9273,1.9313,1.9354,1.9426,1.9462,1.9531,1.9587,1.9695,1.9743,1.9809,1.9817,1.9851,1.9827,1.9815,1.9816,1.9812,1.9816,1.9855,1.9855,1.9856,1.9856,0,1.9054,1.9072,1.9128,1.9192,1.9239,1.9292,1.9344,1.9373,1.9422,1.9467,1.9536,1.958,1.9667,1.9735,1.9806,1.9844,1.9858,1.9864,1.9875,1.9865,1.9846,1.9855,1.9761,1.986,1.986,1.986,1.9859,1.9859,1.9098,1.914,1.9198,1.926,1.9304,1.9352,1.9397,1.9437,1.9495,1.9568,1.9588,1.966,1.972,1.9816,1.9855,1.9912,1.9908,1.9925,1.993,1.9933,1.9932,1.9838,1.9926,1.9925,1.9925,1.9925,1.9925,0,1.9169,1.9207,1.9264,1.9336,1.9385,1.9394,1.9452,1.9493,1.9555,1.9609,1.9664,1.9743,1.9809,1.9863,1.9931,1.9967,1.9975,1.9983,1.998,1.9988,1.9933,1.9915,1.9975,1.9975,1.9975,1.9975,1.9975,1.9975,1.9211,1.9282,1.9307,1.94,1.9439,1.9507,1.954,1.9586,1.9629,1.9715,1.9769,1.9803,1.9858,1.993,1.9992,2.0006,2.003,2.0036,2.0052,1.9998,1.9993,1.9987,1.997,2.0041,2.0041,2.0102,2.0103,2.0103]},{"header":{"parameterUnit":"m.s-1","parameterCategory":1,"la1":30.2991,"la2":30.254,"lo1":-89.0895,"lo2":-89.0444,"dy":0.0017,"dx":0.0017,"nx":28,"ny":28,"refTime":"2025-07-15T09:00:00:Z","depth":0,"parameterNumber":3,"parameterNumberName":"V-component_of_WINDS"},"data":[0,0,0,0,0,0,0,0,0,0,0,0,0,0,0,0,0,0,0,0,0,0,0,0,0,0,0,0,0,0,0,0,0,0,0,0,0,0,0,0,0,0,0,0,0,0,0,0,0,0,0,0,0,0,0,0,0,0,1.207,1.2071,0,1.2107,1.2107,1.2108,1.2112,1.2112,1.2111,1.2111,1.2146,1.2148,1.2149,0,0,0,0,0,0,0,0,0,0,0,0,0,1.2,1.2002,1.207,1.2071,1.2071,1.2107,1.2107,1.2108,1.2112,1.2112,1.2111,1.2111,1.2146,1.2147,1.2149,0,0,0,0,0,0,0,0,0,0,0,0,0,1.2033,1.2002,1.207,1.2078,1.2079,1.2107,1.2108,1.2108,1.2112,1.2112,1.2111,1.2111,1.2145,1.2147,1.2149,1.2172,0,0,1.2155,1.2156,0,0,0,0,0,0,0,0,1.2031,1.2036,1.2076,1.2077,1.2078,1.2104,1.2096,1.2129,1.2112,1.2099,1.2111,1.211,1.2133,1.2136,1.2144,1.2173,1.2175,1.2155,1.2156,1.2157,1.2158,0,0,0,0,0,0,0,1.2029,1.2034,1.2085,1.2077,1.2078,1.2078,1.2082,1.2102,1.2119,1.21,1.2101,1.2105,1.2133,1.2142,1.2144,1.2176,1.2155,1.2157,1.2158,1.2159,1.2223,1.2224,0,0,0,0,0,0,1.2026,1.2032,1.2084,1.2086,1.2053,1.208,1.2084,1.2097,1.2118,1.2121,1.2106,1.2105,1.2139,1.2142,1.2146,1.2172,1.2157,1.2159,1.216,1.2223,1.2224,1.2224,0,0,0,0,0,0,1.2024,1.203,1.2082,1.2059,1.2066,1.2082,1.2095,1.2098,1.2106,1.2122,1.2125,1.2112,1.2138,1.2143,1.2165,1.2174,1.216,1.2162,1.2222,1.2223,1.2224,1.2226,0,0,0,0,0,0,1.2022,1.203,1.204,1.2059,1.2067,1.2102,1.2096,1.2099,1.211,1.211,1.2129,1.2131,1.2138,1.2162,1.2167,1.2176,1.2163,1.2221,1.2223,1.2224,1.2226,1.2227,1.2229,0,0,0,0,0,1.202,1.2039,1.204,1.2046,1.208,1.2102,1.2107,1.2115,1.2111,1.212,1.213,1.2131,1.2172,1.2164,1.217,1.218,1.2221,1.2222,1.2224,1.2225,1.2227,1.2229,0,0,0,0,0,0,1.2019,1.2042,1.2043,1.207,1.2084,1.2103,1.2115,1.2117,1.2133,1.2132,1.2141,1.2145,1.2166,1.2175,1.2166,1.2201,1.2196,1.2198,1.2195,1.2197,1.2199,1.2196,1.2165,0,0,0,0,0,1.2022,1.204,1.2058,1.2079,1.2087,1.2099,1.211,1.2115,1.213,1.2136,1.2148,1.2162,1.2177,1.2188,1.2204,1.2227,1.223,1.2236,1.2238,1.2239,1.2241,1.2252,1.2254,1.2228,1.2228,1.2228,0,0,1.2029,1.2043,1.2053,1.2079,1.2091,1.2108,1.2105,1.2123,1.2135,1.2139,1.216,1.2169,1.2185,1.2207,1.2217,1.2215,1.2248,1.224,1.2241,1.2242,1.2253,1.2256,1.2258,1.2229,1.2229,1.2229,0,0,1.2048,1.2062,1.208,1.2092,1.211,1.2118,1.2122,1.2141,1.2147,1.2168,1.2171,1.2185,1.2213,1.2223,1.2232,1.2254,1.2255,1.2259,1.2267,1.2277,1.2279,1.2281,1.2287,1.229,1.2261,1.2261,1.2261,0,1.2053,1.208,1.2089,1.2107,1.2117,1.2121,1.2139,1.215,1.2172,1.2178,1.2176,1.2209,1.2221,1.2244,1.2249,1.2257,1.2261,1.2257,1.2278,1.228,1.2282,1.2288,1.2291,1.2261,1.2261,1.2261,1.2261,0,1.2084,1.2102,1.2115,1.2136,1.2148,1.2165,1.2176,1.2187,1.219,1.2198,1.2219,1.2233,1.225,1.2256,1.226,1.228,1.2278,1.2277,1.2271,1.2285,1.2291,1.2293,1.2261,1.2261,1.2261,1.2261,0,0,1.2105,1.213,1.2135,1.2143,1.2163,1.2176,1.2193,1.2211,1.2219,1.2234,1.2247,1.227,1.2268,1.2278,1.2283,1.2293,1.2307,1.229,1.2291,1.2292,1.2328,1.2329,1.2331,1.2308,1.2309,1.2309,1.2327,0,1.2126,1.2157,1.2165,1.2191,1.2207,1.221,1.2225,1.2237,1.2245,1.2258,1.2266,1.2282,1.2279,1.2285,1.2295,1.2304,1.2315,1.2302,1.2319,1.232,1.2315,1.2335,1.2335,1.2351,1.2329,1.2329,1.233,0,1.2155,1.217,1.2197,1.2213,1.222,1.2233,1.2249,1.2262,1.2276,1.2281,1.2291,1.2295,1.2311,1.2305,1.2326,1.2318,1.2325,1.233,1.2331,1.2332,1.2325,1.2335,1.2357,1.2359,1.2334,1.2333,1.2333,0,1.2165,1.2192,1.2212,1.222,1.2239,1.2248,1.2256,1.227,1.2279,1.2293,1.2299,1.2314,1.2322,1.2333,1.234,1.2335,1.236,1.2355,1.2363,1.2363,1.2368,1.2367,1.239,1.2374,1.2374,1.2374,1.2374,0,1.2187,1.2203,1.2217,1.2229,1.2247,1.2255,1.2272,1.228,1.2292,1.2304,1.2309,1.232,1.2329,1.2341,1.2347,1.2363,1.2367,1.237,1.2371,1.2369,1.2368,1.2373,1.2372,1.2375,1.2374,1.2374,1.2374,0,1.2202,1.2212,1.2233,1.2249,1.2254,1.2266,1.228,1.2291,1.2298,1.2314,1.2318,1.2329,1.2344,1.2352,1.237,1.2374,1.2391,1.2392,1.2387,1.2387,1.2394,1.2393,1.242,1.2424,1.2406,1.2406,1.2407,0,1.2215,1.2227,1.2245,1.2254,1.2262,1.2277,1.2286,1.2295,1.2304,1.232,1.2329,1.2344,1.2356,1.2379,1.2388,1.2401,1.2402,1.241,1.2404,1.2401,1.2401,1.24,1.24,1.2411,1.2411,1.2412,1.2412,0,1.2236,1.224,1.2254,1.227,1.2281,1.2293,1.2306,1.2312,1.2322,1.2333,1.2348,1.2357,1.2376,1.239,1.2404,1.2411,1.2412,1.2414,1.2416,1.2414,1.241,1.2411,1.2389,1.2413,1.2413,1.2413,1.2413,1.2413,1.2249,1.226,1.2274,1.2289,1.2299,1.231,1.2321,1.2329,1.2342,1.2358,1.2362,1.2377,1.2389,1.2408,1.2416,1.2427,1.2425,1.2429,1.243,1.2431,1.243,1.2409,1.243,1.243,1.243,1.243,1.243,0,1.227,1.2279,1.2292,1.2309,1.2321,1.2322,1.2335,1.2344,1.2358,1.2369,1.2381,1.2397,1.2411,1.2421,1.2434,1.2441,1.2442,1.2444,1.2443,1.2445,1.2432,1.2428,1.2443,1.2443,1.2443,1.2443,1.2443,1.2443,1.2282,1.2299,1.2305,1.2327,1.2335,1.2351,1.2358,1.2368,1.2377,1.2395,1.2406,1.2413,1.2423,1.2437,1.2449,1.2451,1.2456,1.2458,1.246,1.2447,1.2446,1.2444,1.2441,1.2459,1.2459,1.2472,1.2472,1.2472]}]]